timestamp,surface_pressure_avg,surface_temp_avg,battery_voltage,lat,long
2022-11-28 00:09:01+00:00,293.7596,5.7,12.49,47.84626,-54.09684
2022-11-28 00:19:00+00:00,292.3546,5.65,12.49,47.84626,-54.09684
2022-11-28 00:29:00+00:00,296.5964,5.7,12.49,47.84626,-54.09684
2022-11-28 00:39:00+00:00,305.988,5.7,12.49,47.84626,-54.09684
2022-11-28 00:49:00+00:00,314.3912,5.7,12.49,47.84626,-54.09684
2022-11-28 00:59:00+00:00,316.218,5.7,12.49,47.84626,-54.09684
2022-11-28 01:09:00+00:00,323.6281,5.7,12.49,47.84626,-54.09684
2022-11-28 01:19:00+00:00,331.3963,5.7,12.49,47.84626,-54.09684
2022-11-28 01:29:00+00:00,334.413,5.7,12.49,47.84626,-54.09684
2022-11-28 01:39:00+00:00,331.6813,5.7,12.49,47.84626,-54.09684
2022-11-28 01:49:00+00:00,339.3196,5.7,12.49,47.84626,-54.09684
2022-11-28 01:59:00+00:00,347.9713,5.7,12.49,47.84626,-54.09684
2022-11-28 02:09:00+00:00,345.4412,5.7,12.49,47.84626,-54.09684
2022-11-28 02:19:01+00:00,344.7813,5.7,12.49,47.84626,-54.09684
2022-11-28 02:29:01+00:00,354.8646,5.7,12.49,47.84626,-54.09684
2022-11-28 02:39:01+00:00,361.1497,5.7,12.49,47.84626,-54.09684
2022-11-28 02:49:01+00:00,357.2112,5.72,12.49,47.84626,-54.09684
2022-11-28 02:59:01+00:00,359.2497,5.72,12.49,47.84626,-54.09684
2022-11-28 03:09:01+00:00,364.3063,5.72,12.49,47.84626,-54.09684
2022-11-28 03:19:01+00:00,356.0396,5.7,12.49,47.84626,-54.09684
2022-11-28 03:29:01+00:00,346.9612,5.7,12.49,47.84626,-54.09684
2022-11-28 03:39:01+00:00,349.8646,5.7,12.49,47.84626,-54.09684
2022-11-28 03:49:01+00:00,356.1179,5.72,12.49,47.84626,-54.09684
2022-11-28 03:59:01+00:00,351.7646,5.72,12.49,47.84626,-54.09684
2022-11-28 04:09:01+00:00,349.69800000000015,5.7,12.49,47.84626,-54.09684
2022-11-28 04:19:01+00:00,348.083,5.7,12.49,47.84626,-54.09684
2022-11-28 04:29:01+00:00,343.0429,5.7,12.49,47.84626,-54.09684
2022-11-28 04:39:01+00:00,337.5829,5.7,12.49,47.84626,-54.09684
2022-11-28 04:49:01+00:00,339.3897,5.7,12.49,47.84626,-54.09684
2022-11-28 04:59:01+00:00,338.2747,5.7,12.49,47.84626,-54.09684
2022-11-28 05:09:01+00:00,322.1263,5.7,12.49,47.84626,-54.09684
2022-11-28 05:19:00+00:00,313.8213,5.7,12.49,47.84626,-54.09684
2022-11-28 05:29:00+00:00,311.4446,5.7,12.49,47.84626,-54.09684
2022-11-28 05:39:00+00:00,306.4547,5.7,12.49,47.84626,-54.09684
2022-11-28 05:49:00+00:00,289.7014,5.7,12.49,47.84626,-54.09684
2022-11-28 05:59:00+00:00,283.1397,5.7,12.49,47.84626,-54.09684
2022-11-28 06:09:00+00:00,275.5097,5.7,12.49,47.84626,-54.09684
2022-11-28 06:19:00+00:00,257.0598,5.7,12.49,47.84626,-54.09684
2022-11-28 06:29:00+00:00,241.5547,5.7,12.49,47.84626,-54.09684
2022-11-28 06:39:00+00:00,235.7514,5.7,12.49,47.84626,-54.09684
2022-11-28 06:49:00+00:00,227.5114,5.7,12.49,47.84626,-54.09684
2022-11-28 06:59:00+00:00,218.3114,5.7,12.49,47.84626,-54.09684
2022-11-28 07:09:00+00:00,214.3947,5.7,12.49,47.84626,-54.09684
2022-11-28 07:19:01+00:00,208.7215,5.7,12.49,47.84626,-54.09684
2022-11-28 07:29:01+00:00,205.1798,5.7,12.49,47.84626,-54.09684
2022-11-28 07:39:01+00:00,209.5698,5.7,12.49,47.84626,-54.09684
2022-11-28 07:49:01+00:00,212.5048,5.7,12.49,47.84626,-54.09684
2022-11-28 07:59:01+00:00,206.8015,5.7,12.49,47.84626,-54.09684
2022-11-28 08:09:01+00:00,201.4464,5.7,12.49,47.84626,-54.09684
2022-11-28 08:19:00+00:00,204.9348,5.7,12.49,47.84626,-54.09684
2022-11-28 08:29:00+00:00,207.8665,5.6,12.49,47.84626,-54.09684
2022-11-28 08:39:00+00:00,206.4348,5.53,12.49,47.84626,-54.09684
2022-11-28 08:49:00+00:00,211.0731,5.62,12.49,47.84626,-54.09684
2022-11-28 08:59:00+00:00,217.5614,5.7,12.49,47.84626,-54.09684
2022-11-28 09:09:00+00:00,218.1447,5.7,12.49,47.84626,-54.09684
2022-11-28 09:19:00+00:00,216.3814,5.7,12.49,47.84626,-54.09684
2022-11-28 09:29:00+00:00,223.8914,5.7,12.49,47.84626,-54.09684
2022-11-28 09:39:00+00:00,238.7164,5.7,12.49,47.84626,-54.09684
2022-11-28 09:49:00+00:00,239.8448,5.7,12.49,47.84626,-54.09684
2022-11-28 09:59:00+00:00,233.2781,5.73,12.49,47.84626,-54.09684
2022-11-28 10:09:00+00:00,239.2964,5.7,12.49,47.84626,-54.09684
2022-11-28 10:19:00+00:00,247.6647,5.71,12.49,47.84626,-54.09684
2022-11-28 10:29:00+00:00,241.8665,5.73,12.49,47.84626,-54.09684
2022-11-28 10:39:00+00:00,241.5714,5.72,12.49,47.84626,-54.09684
2022-11-28 10:49:00+00:00,252.2781,5.71,12.49,47.84626,-54.09684
2022-11-28 10:59:00+00:00,262.1681,5.71,12.49,47.84626,-54.09684
2022-11-28 11:09:00+00:00,265.5398,5.75,12.49,47.84626,-54.09684
2022-11-28 11:19:00+00:00,269.5147,5.76,12.49,47.84626,-54.09684
2022-11-28 11:29:00+00:00,276.4364,5.75,12.49,47.84626,-54.09684
2022-11-28 11:39:00+00:00,286.4631,5.76,12.49,47.84626,-54.09684
2022-11-28 11:49:00+00:00,294.1014,5.77,12.49,47.84626,-54.09684
2022-11-28 11:59:00+00:00,297.483,5.78,12.49,47.84626,-54.09684
2022-11-28 12:09:00+00:00,300.848,5.78,12.49,47.84626,-54.09684
2022-11-28 12:19:00+00:00,305.678,5.78,12.49,47.84626,-54.09684
2022-11-28 12:29:00+00:00,309.4064,5.78,12.49,47.84626,-54.09684
2022-11-28 12:39:00+00:00,314.408,5.76,12.49,47.84626,-54.09684
2022-11-28 12:49:00+00:00,326.1913,5.75,12.49,47.84626,-54.09684
2022-11-28 12:59:00+00:00,341.2413,5.75,12.49,47.84626,-54.09684
2022-11-28 13:09:00+00:00,349.853,5.75,12.49,47.84626,-54.09684
2022-11-28 13:19:00+00:00,353.7545,5.73,12.49,47.84626,-54.09684
2022-11-28 13:29:00+00:00,351.1396,5.73,12.49,47.84626,-54.09684
2022-11-28 13:39:00+00:00,368.593,5.72,12.49,47.84626,-54.09684
2022-11-28 13:49:00+00:00,378.7263,5.74,12.49,47.84626,-54.09684
2022-11-28 13:59:00+00:00,371.9962,5.7,12.49,47.84626,-54.09684
2022-11-28 14:09:00+00:00,377.1163,5.7,12.49,47.84626,-54.09684
2022-11-28 14:19:00+00:00,382.3129,5.7,12.57,47.84626,-54.09684
2022-11-28 14:29:00+00:00,383.2496,5.7,12.57,47.84626,-54.09684
2022-11-28 14:39:00+00:00,383.5329,5.7,12.57,47.84626,-54.09684
2022-11-28 14:49:00+00:00,390.218,5.7,12.57,47.84626,-54.09684
2022-11-28 14:59:00+00:00,403.3863,5.71,12.57,47.84626,-54.09684
2022-11-28 15:09:00+00:00,396.1745,5.7,12.57,47.84626,-54.09684
2022-11-28 15:19:00+00:00,393.4379,5.7,12.73,47.84626,-54.09684
2022-11-28 15:29:00+00:00,407.0845,5.7,12.73,47.84626,-54.09684
2022-11-28 15:39:00+00:00,412.1096,5.7,12.73,47.84626,-54.09684
2022-11-28 15:49:00+00:00,406.8579,5.71,12.73,47.84626,-54.09684
2022-11-28 15:59:00+00:00,402.1129,5.74,12.73,47.84626,-54.09684
2022-11-28 16:09:00+00:00,400.6779,5.78,12.73,47.84626,-54.09684
2022-11-28 16:19:00+00:00,394.2546,5.79,12.65,47.84626,-54.09684
2022-11-28 16:29:00+00:00,379.4446,5.78,12.65,47.84626,-54.09684
2022-11-28 16:39:00+00:00,382.5463,5.78,12.65,47.84626,-54.09684
2022-11-28 16:49:00+00:00,384.6779,5.78,12.65,47.84626,-54.09684
2022-11-28 16:59:00+00:00,384.3346,5.77,12.65,47.84626,-54.09684
2022-11-28 17:09:00+00:00,386.7145,5.78,12.65,47.84626,-54.09684
2022-11-28 17:19:00+00:00,371.0729,5.75,12.57,47.84626,-54.09684
2022-11-28 17:29:00+00:00,360.0713,5.77,12.57,47.84626,-54.09684
2022-11-28 17:39:00+00:00,352.7213,5.79,12.57,47.84626,-54.09684
2022-11-28 17:49:00+00:00,339.8979,5.8,12.57,47.84626,-54.09684
2022-11-28 17:59:00+00:00,331.0496,5.79,12.57,47.84626,-54.09684
2022-11-28 18:09:00+00:00,321.928,5.8,12.57,47.84626,-54.09684
2022-11-28 18:19:00+00:00,315.3879,5.8,12.57,47.84626,-54.09684
2022-11-28 18:29:00+00:00,308.2347,5.8,12.57,47.84626,-54.09684
2022-11-28 18:39:00+00:00,296.8163,5.8,12.57,47.84626,-54.09684
2022-11-28 18:49:00+00:00,302.7547,5.8,12.57,47.84626,-54.09684
2022-11-28 18:59:00+00:00,298.4164,5.79,12.57,47.84626,-54.09684
2022-11-28 19:09:00+00:00,284.0464,5.7,12.57,47.84626,-54.09684
2022-11-28 19:19:00+00:00,272.8598,5.6,12.49,47.84626,-54.09684
2022-11-28 19:29:00+00:00,272.7931,5.6,12.49,47.84626,-54.09684
2022-11-28 19:39:00+00:00,266.9331,5.59,12.49,47.84626,-54.09684
2022-11-28 19:49:00+00:00,259.7447,5.5,12.49,47.84626,-54.09684
2022-11-28 19:59:00+00:00,270.7148,5.5,12.49,47.84626,-54.09684
2022-11-28 20:09:00+00:00,274.3097,5.7,12.49,47.84626,-54.09684
2022-11-28 20:19:01+00:00,257.3364,5.5,12.49,47.84626,-54.09684
2022-11-28 20:29:01+00:00,257.8247,5.41,12.49,47.84626,-54.09684
2022-11-28 20:39:01+00:00,272.4364,5.5,12.49,47.84626,-54.09684
2022-11-28 20:49:01+00:00,270.2698,5.7,12.49,47.84626,-54.09684
2022-11-28 20:59:01+00:00,255.6897,5.6,12.49,47.84626,-54.09684
2022-11-28 21:09:01+00:00,265.8781,5.58,12.49,47.84626,-54.09684
2022-11-28 21:19:00+00:00,277.2313,5.62,12.49,47.84626,-54.09684
2022-11-28 21:29:00+00:00,266.5331,5.6,12.49,47.84626,-54.09684
2022-11-28 21:39:00+00:00,253.1097,5.6,12.49,47.84626,-54.09684
2022-11-28 21:49:00+00:00,267.248,5.6,12.49,47.84626,-54.09684
2022-11-28 21:59:00+00:00,275.1564,5.64,12.49,47.84626,-54.09684
2022-11-28 22:09:00+00:00,266.5297,5.6,12.49,47.84626,-54.09684
2022-11-28 22:19:00+00:00,263.013,5.53,12.49,47.84626,-54.09684
2022-11-28 22:29:00+00:00,270.5298,5.56,12.49,47.84626,-54.09684
2022-11-28 22:39:00+00:00,266.7548,5.59,12.49,47.84626,-54.09684
2022-11-28 22:49:00+00:00,255.1597,5.5,12.49,47.84626,-54.09684
2022-11-28 22:59:00+00:00,258.9514,5.5,12.49,47.84626,-54.09684
2022-11-28 23:09:00+00:00,269.7947,5.58,12.49,47.84626,-54.09684
2022-11-28 23:19:00+00:00,278.3048,5.6,12.49,47.84626,-54.09684
2022-11-28 23:29:00+00:00,273.8647,5.6,12.49,47.84626,-54.09684
2022-11-28 23:39:00+00:00,262.7531,5.59,12.49,47.84626,-54.09684
2022-11-28 23:49:00+00:00,258.0764,5.6,12.49,47.84626,-54.09684
2022-11-28 23:59:00+00:00,276.1431,5.67,12.49,47.84626,-54.09684
